Location: Amsterdam
(30.7274°N, 84.4357°W)
Time: 05:05:43
(UTC+00:00)

Tiros 1 despin weight - Pass Details

Date: 24 February 2026
Orbit: 556 x 593 km, 48.2° (Epoch: 13 March)

Event Time Altitude Azimuth Distance (km) Brightness Sun altitude
Rises 17:03:08 0° 231° (SW) 2,768 ? 48.4°
Reaches altitude 10° 17:05:24 10° 232° (SW) 1,866 ? 48.5°
Maximum altitude 17:09:40 79° 318° (NW) 579 ? 48.8°
Drops below altitude 10° 17:13:55 10° 47° (NE) 1,850 ? 49.0°
Sets 17:16:09 0° 48° (NE) 2,743 ? 49.1°
